AirNav   Everest Fuels
 
 1499 users online  

55Y Rushford Municipal-Robert W Bunke Field Airport
Rushford, Minnesota, USA

GOING TO RUSHFORD?


FAA INFORMATION EFFECTIVE 16 JUNE 2022

Location

FAA Identifier: 55Y
Lat/Long: 43-48-56.9700N 091-49-48.3420W
43-48.949500N 091-49.805700W
43.8158250,-91.8300950
(estimated)
Elevation: 1211 ft. / 369.1 m (surveyed)
Variation: 01E (1995)
From city: 3 miles W of RUSHFORD, MN
Time zone: UTC -5 (UTC -6 during Standard Time)
Zip code: 55971

Airport Operations

Airport use: Open to the public
Activation date: 09/1975
Control tower: no
ARTCC: MINNEAPOLIS CENTER
FSS: PRINCETON FLIGHT SERVICE STATION
NOTAMs facility: PNM (NOTAM-D service available)
Attendance: UNATNDD
Wind indicator: lighted
Segmented circle: no
Lights: ACTVT PAPI RWY 16 & 34; MIRL RWY 16/34 - CTAF.
Beacon: white-green (lighted land airport)
Operates sunset to sunrise.

Airport Communications

CTAF: 122.9
ROCHESTER APPROACH: 119.8 [0500-2300]
ROCHESTER DEPARTURE: 119.8 [0500-2300]
WX AWOS-3 at ONA (17 nm N): 118.075 (507-453-2991)
WX AWOS-3 at FKA (17 nm SW): 118.550 (507-765-2182)
  • APCH/DEP SVC PRVDD BY MINNEAPOLIS ARTCC ON FREQS 132.35/307.3 (ROCHESTER RCAG) WHEN ROCHESTER APCH CLSD.

Airport Services

Fuel available: 100LL
100LL:SELF SERVICE FUEL AVBL WITH CREDIT CARD.
Parking: tiedowns
Airframe service: NONE
Powerplant service: NONE
Bottled oxygen: NONE
Bulk oxygen: NONE

Runway Information

Runway 16/34

Dimensions: 3200 x 60 ft. / 975 x 18 m
Surface: asphalt, in fair condition
Runway edge lights: medium intensity
RUNWAY 16  RUNWAY 34
Latitude: 43-49.199550N43-48.699883N
Longitude: 091-49.921217W091-49.691417W
Elevation: 1211.0 ft.1183.0 ft.
Traffic pattern: leftleft
Runway heading: 161 magnetic, 162 true341 magnetic, 342 true
Markings: nonprecision, in good conditionnonprecision, in good condition
Visual slope indicator: 2-light PAPI on left (3.00 degrees glide path)2-light PAPI on left (3.00 degrees glide path)
Touchdown point: no, no lightsyes, no lights

Airport Ownership and Management from official FAA records

Ownership: Publicly-owned
Owner: CITY OF RUSHFORD
101 N MILL ST, PO BOX 430
RUSHFORD, MN 55971
Phone 507-864-2444
Manager: TONY CHLADEK
101 N MILL ST
RUSHFORD, MN 55971
Phone (507) 864-2444
EMAIL ADDRESS: RUSHFORD@ACEGROUP.CC (ALL LOWER CASE)

Airport Operational Statistics

Aircraft based on the field: 11
Single engine airplanes: 10
Helicopters: 1
    
Aircraft operations: avg 38/week *
60% local general aviation
40% transient general aviation
* for 12-month period ending 30 April 2019

Additional Remarks

CAUTION DEER ON & INVOF AIRPORT.
FOR CD CTC ROCHESTER APCH AT 507-424-8111.

Instrument Procedures

NOTE: All procedures below are presented as PDF files. If you need a reader for these files, you should download the free Adobe Reader.

NOT FOR NAVIGATION. Please procure official charts for flight.
FAA instrument procedures published for use from 16 June 2022 at 0901Z to 14 July 2022 at 0900z.

 
IAPs - Instrument Approach Procedures
RNAV (GPS) RWY 34   download (199KB)
VOR-A   download (175KB)
NOTE: Special Take-Off Minimums/Departure Procedures apply   download (398KB)

Other nearby airports with instrument procedures:

KONA - Winona Municipal Airport-Max Conrad Field (17 nm N)
KFKA - Fillmore County Airport (17 nm SW)
KCHU - Houston County Airport (19 nm SE)
KLSE - La Crosse Regional Airport (25 nm E)
KRST - Rochester International Airport (30 nm W)
 
Loc | Ops | Rwys | IFR | FBO | Links
Com | Nav | Svcs | Stats | Notes
Area around 55Y (Rushford Municipal-Robert W Bunke Field Airport)
 
Road maps at: MapQuest Bing Google
 
Aerial photo
WARNING: Photo may not be current or correct
Aerial photo of 55Y (Rushford Municipal-Robert W Bunke Field Airport)
Photo by Russ Marsolek

Do you have a better or more recent aerial photo of Rushford Municipal-Robert W Bunke Field Airport that you would like to share? If so, please send us your photo.

 
Sectional chart

 
Airport distance calculator
Flying to Rushford Municipal-Robert W Bunke Field Airport? Find the distance to fly.

From to 55Y

Sunrise and sunset
Times for 28-Jun-2022
 Local
(UTC-5)
 Zulu
(UTC)
Morning civil twilight04:5209:52
Sunrise05:2810:28
Sunset20:5301:53
Evening civil twilight21:2902:29

Current date and time
Zulu (UTC)  28-Jun-2022 21:06:52
Local (UTC-5)  28-Jun-2022 16:06:52
 
METAR
KONA 
16nm N 
282055Z AUTO 22006KT 10SM SCT075 BKN090 27/15 A3003 RMK AO2
KFKA 
17nm SW 
282055Z AUTO 24011G18KT 10SM CLR 27/12 A3007 RMK AO2 T02680118
KLSE 
25nm E 
282053Z 20007KT 10SM CLR 29/13 A3004 RMK AO2 SLP163 60000 T02940128 57027
KRST 
29nm W 
282054Z 22015G24KT 10SM BKN070 OVC090 27/12 A3005 RMK AO2 PK WND 21026/2015 SLP170 T02670122 56022
K9MN 
31nm NW 
282019Z AUTO 24012G20KT 10SM BKN070 BKN090 BKN110 27/11 A3005 RMK AO1
TAF
KLSE 
25nm E 
281720Z 2818/2918 20009KT P6SM BKN100 FM290000 23009KT P6SM VCTS BKN060CB FM290300 VRB03KT P6SM SCT200 FM291500 12006KT P6SM FEW150
KRST 
29nm W 
281121Z 2812/2912 21012KT P6SM VCSH BKN090 FM282300 26011KT P6SM BKN070 FM290300 34007KT P6SM SCT070
NOTAMs
Click for the latest NOTAMs
NOTAMs are issued by the DoD/FAA and will open in a separate window not controlled by AirNav.

 

 
 

FBO, Fuel Providers, and Aircraft Ground Support

  
 Business Name 
 
 Contact 
 
 Services / Description 
 
Fuel Prices
 
Comments
  
 City of Rushford
507-864-2444
[web site]
[email]
Airport management, Aviation fuel, Aircraft parking (ramp or tiedown), Hangars, Passenger terminal and lounge, Rental cars delivered, Courtesy transportation, ...

More info about City of Rushford
100LL
SS $5.94 
 Updated 23-Jun-2022
 
   1 read write
SS=Self service
Update Fuel Prices
 

Would you like to see your business listed on this page?

 If your business provides an interesting product or service to pilots, flight crews, aircraft, or users of the Rushford Municipal-Robert W Bunke Field Airport, you should consider listing it here.  To start the listing process, click on the button below
 
Add a business
 

Other Pages about Rushford Municipal-Robert W Bunke Field Airport

www.rushford.govoffice.com/index.asp?SEC=E4507E08-19A6-48C3-B18E-862D748FF6CB&DE=66036454-0F79-4486-AA7A-E3D9801C3CB3&Type=B_BASIC
 
Update a link
 
Copyright © AirNav, LLC. All rights reserved. Privacy Policy  Contact